EW7004 Weather Reports


Display with metric or nautical units.
time (UTC)temp
F
wind
direction
speed
MPH
gust
MPH
rain 1hr
in
rain 24hr
in
rain mn
in
humidity
%
barometer
mb
20260903104904 59 203 0.0 0.0 0.00 0.00 0.00 60 1032.0
20260903104404 59 203 0.0 0.0 0.00 0.00 0.00 60 1032.0
20260903103904 59 203 0.0 0.0 0.00 0.00 0.00 60 1032.1
20260903103404 59 203 0.0 0.0 0.00 0.00 0.00 60 1032.1
20260903102404 60 203 0.0 0.0 0.00 0.00 0.00 64 1032.0
20260903101403 60 203 0.0 0.0 0.00 0.00 0.00 64 1032.1
20260903100903 60 203 0.0 0.0 0.00 0.00 0.00 65 1032.1
20260903095403 60 203 0.0 0.0 0.00 0.00 0.00 64 1032.0
20260903094403 61 203 0.0 0.0 0.00 0.00 0.00 64 1032.0
20260903093903 61 203 0.0 0.0 0.00 0.00 0.00 66 1032.0
20260903093404 62 203 0.0 0.0 0.00 0.00 0.00 71 1032.0
20260903092904 62 203 0.0 0.0 0.00 0.00 0.00 72 1032.1
20260903092403 62 203 0.0 0.0 0.00 0.00 0.00 70 1032.0
20260903091903 62 203 0.0 0.0 0.00 0.00 0.00 69 1032.1
20260903090904 62 203 0.0 0.0 0.00 0.00 0.00 69 1032.1
20260903090403 63 203 0.0 0.0 0.00 0.00 0.00 74 1032.1
20260903085904 63 203 0.0 0.0 0.00 0.00 0.00 74 1032.1
20260903084903 63 203 0.0 0.0 0.00 0.00 0.00 73 1032.3
20260903084403 63 203 0.0 0.0 0.00 0.00 0.00 73 1032.4
20260903083903 63 203 0.0 0.0 0.00 0.00 0.00 73 1032.4
20260903083404 63 203 0.0 0.0 0.00 0.00 0.00 72 1032.4
20260903082904 63 180 0.0 0.0 0.00 0.00 0.00 71 1032.4
20260903082403 63 148 0.0 0.0 0.00 0.00 0.00 71 1032.4
20260903081903 63 148 0.0 0.0 0.00 0.00 0.00 70 1032.4
20260903081404 64 148 0.0 2.0 0.00 0.00 0.00 70 1032.5
20260903080904 64 148 1.0 3.0 0.00 0.00 0.00 70 1032.4
20260903080403 64 148 1.0 2.0 0.00 0.00 0.00 70 1032.4
20260903075903 64 148 1.0 3.0 0.00 0.00 0.00 69 1032.5
20260903074904 64 217 0.0 0.0 0.00 0.00 0.00 68 1032.5
20260903074404 64 217 0.0 2.0 0.00 0.00 0.00 67 1032.5
20260903073904 64 217 0.0 0.0 0.00 0.00 0.00 66 1032.4
20260903073403 64 217 0.0 0.0 0.00 0.00 0.00 66 1032.5
20260903072903 65 217 0.0 0.0 0.00 0.00 0.00 65 1032.5
20260903072403 65 217 0.0 0.0 0.00 0.00 0.00 65 1032.5
20260903071903 65 217 0.0 0.0 0.00 0.00 0.00 64 1032.5
20260903071404 65 217 0.0 0.0 0.00 0.00 0.00 63 1032.6
20260903070903 65 217 0.0 0.0 0.00 0.00 0.00 63 1032.6
20260903070403 65 217 0.0 0.0 0.00 0.00 0.00 63 1032.6
20260903065404 66 217 0.0 0.0 0.00 0.00 0.00 62 1032.6
20260903064903 66 217 0.0 2.0 0.00 0.00 0.00 61 1032.6
20260903064404 66 217 1.0 3.0 0.00 0.00 0.00 61 1032.6
20260903063904 66 210 1.0 5.0 0.00 0.00 0.00 60 1032.6
20260903063403 66 169 2.0 3.0 0.00 0.00 0.00 58 1032.6
20260903062903 66 159 1.0 3.0 0.00 0.00 0.00 56 1032.7
20260903062403 67 184 0.0 0.0 0.00 0.00 0.00 55 1032.7
20260903061403 67 184 0.0 0.0 0.00 0.00 0.00 53 1032.7
20260903060903 67 184 1.0 2.0 0.00 0.00 0.00 51 1032.7
20260903060404 67 184 0.0 0.0 0.00 0.00 0.00 50 1032.8
20260903055404 68 184 0.0 0.0 0.00 0.00 0.00 49 1032.8
20260903054903 68 184 0.0 3.0 0.00 0.00 0.00 48 1032.8
20260903054403 68 184 2.0 3.0 0.00 0.00 0.00 47 1032.8
20260903053904 68 190 1.0 3.0 0.00 0.00 0.00 47 1032.9
20260903052903 69 192 2.0 5.0 0.00 0.00 0.00 45 1032.8
20260903052404 69 200 2.0 3.0 0.00 0.00 0.00 44 1032.8
20260903051904 70 200 2.0 5.0 0.00 0.00 0.00 44 1032.7
20260903051404 70 195 3.0 5.0 0.00 0.00 0.00 43 1032.8
20260903050904 71 216 2.0 3.0 0.00 0.00 0.00 42 1032.8
20260903050403 71 229 0.0 0.0 0.00 0.00 0.00 43 1032.7
20260903045903 71 229 1.0 3.0 0.00 0.00 0.00 43 1032.7
20260903045404 71 229 2.0 3.0 0.00 0.00 0.00 43 1032.7
20260903044904 71 185 1.0 3.0 0.00 0.00 0.00 41 1032.6
20260903044403 72 227 2.0 3.0 0.00 0.00 0.00 39 1032.6
20260903043904 72 219 1.0 3.0 0.00 0.00 0.00 39 1032.5
20260903043403 72 211 3.0 5.0 0.00 0.00 0.00 37 1032.5
20260903042903 72 215 4.0 6.0 0.00 0.00 0.00 37 1032.5
20260903042406 72 213 2.0 5.0 0.00 0.00 0.00 37 1032.5
20260903041903 72 208 2.0 5.0 0.00 0.00 0.00 37 1032.4
20260903041404 72 203 2.0 3.0 0.00 0.00 0.00 37 1032.4
20260903040903 72 198 2.0 3.0 0.00 0.00 0.00 36 1032.3
20260903040403 73 174 1.0 3.0 0.00 0.00 0.00 35 1032.2
20260903035903 73 167 1.0 3.0 0.00 0.00 0.00 34 1032.2
20260903035403 73 135 2.0 5.0 0.00 0.00 0.00 34 1032.1
20260903034903 73 136 2.0 3.0 0.00 0.00 0.00 34 1032.0
20260903034403 73 133 3.0 7.0 0.00 0.00 0.00 35 1032.0
20260903033903 73 135 2.0 6.0 0.00 0.00 0.00 35 1032.0
20260903032903 74 152 2.0 6.0 0.00 0.00 0.00 35 1031.8
20260903031903 74 139 3.0 8.0 0.00 0.00 0.00 35 1031.8
20260903030903 74 196 2.0 7.0 0.00 0.00 0.00 32 1031.6
20260903030403 75 153 4.0 8.0 0.00 0.00 0.00 30 1031.5
20260903025903 75 130 2.0 7.0 0.00 0.00 0.00 28 1031.4
20260903025403 75 196 3.0 9.0 0.00 0.00 0.00 28 1031.4
20260903024903 75 206 5.0 12.0 0.00 0.00 0.00 28 1031.4
20260903024403 75 217 4.0 8.0 0.00 0.00 0.00 28 1031.4
20260903023903 75 202 4.0 8.0 0.00 0.00 0.00 30 1031.3
20260903023404 76 213 6.0 9.0 0.00 0.00 0.00 31 1031.2
20260903022403 76 201 5.0 9.0 0.00 0.00 0.00 33 1031.2
20260903021903 77 180 4.0 8.0 0.00 0.00 0.00 33 1031.2
20260903021403 77 201 5.0 9.0 0.00 0.00 0.00 34 1031.3
20260903020903 78 148 0.0 3.0 0.00 0.00 0.00 33 1031.2
20260903020403 78 228 2.0 5.0 0.00 0.00 0.00 33 1031.1
20260903015903 78 127 2.0 7.0 0.00 0.00 0.00 32 1031.0
20260903015404 78 172 2.0 6.0 0.00 0.00 0.00 32 1031.0
20260903014903 79 200 3.0 12.0 0.00 0.00 0.00 32 1030.9
20260903014403 79 212 7.0 13.0 0.00 0.00 0.00 31 1030.8
20260903013903 79 198 6.0 13.0 0.00 0.00 0.00 31 1030.8
20260903013403 80 204 9.0 16.0 0.00 0.00 0.00 30 1030.7
20260903012404 81 209 12.0 17.0 0.00 0.00 0.00 28 1030.5
20260903011903 81 212 9.0 20.0 0.00 0.00 0.00 27 1030.4
20260903011403 82 219 10.0 15.0 0.00 0.00 0.00 25 1030.4
20260903010903 83 215 11.0 17.0 0.00 0.00 0.00 25 1030.3
20260903005903 84 200 12.0 17.0 0.00 0.00 0.00 25 1030.3
20260903005403 85 188 6.0 16.0 0.00 0.00 0.00 25 1030.2
20260903004903 85 194 9.0 15.0 0.00 0.00 0.00 24 1030.2
20260903004405 86 193 7.0 18.0 0.00 0.00 0.00 21 1030.1
20260903003903 86 207 11.0 17.0 0.00 0.00 0.00 18 1030.1
20260903003403 86 211 12.0 17.0 0.00 0.00 0.00 19 1030.0
20260903002404 87 207 9.0 18.0 0.00 0.00 0.00 17 1030.0
20260903001903 87 214 12.0 16.0 0.00 0.00 0.00 18 1030.0
20260903001403 88 216 11.0 20.0 0.00 0.00 0.00 17 1030.0
20260903000404 88 192 5.0 13.0 0.00 0.00 0.00 20 1030.0
20260902235903 88 190 6.0 12.0 0.00 0.00 0.00 19 1029.9
20260902234904 88 210 6.0 13.0 0.00 0.00 0.00 18 1030.0
20260902234403 89 205 7.0 14.0 0.00 0.00 0.00 18 1030.0
20260902233403 89 207 6.0 14.0 0.00 0.00 0.00 18 1030.2
20260902232904 89 205 3.0 12.0 0.00 0.00 0.00 20 1030.3
20260902232403 89 218 11.0 16.0 0.00 0.00 0.00 19 1030.4
20260902231903 89 184 4.0 14.0 0.00 0.00 0.00 20 1030.5
20260902231403 89 197 3.0 12.0 0.00 0.00 0.00 19 1030.5
20260902230403 89 217 9.0 16.0 0.00 0.00 0.00 18 1030.6
20260902225903 89 217 9.0 15.0 0.00 0.00 0.00 19 1030.6
20260902225403 89 201 3.0 12.0 0.00 0.00 0.00 19 1030.6
20260902224903 89 183 6.0 12.0 0.00 0.00 0.00 18 1030.7
20260902224403 89 183 6.0 12.0 0.00 0.00 0.00 19 1030.8
20260902223903 89 233 7.0 12.0 0.00 0.00 0.00 18 1030.8
20260902223404 89 181 4.0 12.0 0.00 0.00 0.00 18 1030.8
20260902222903 89 170 5.0 12.0 0.00 0.00 0.00 19 1031.0
20260902222404 89 198 5.0 10.0 0.00 0.00 0.00 19 1031.0
20260902221903 89 202 6.0 15.0 0.00 0.00 0.00 19 1031.1
20260902221403 89 171 5.0 12.0 0.00 0.00 0.00 20 1031.2
20260902220904 89 232 9.0 15.0 0.00 0.00 0.00 18 1031.2
20260902220404 89 167 4.0 8.0 0.00 0.00 0.00 20 1031.2
20260902215903 89 212 4.0 13.0 0.00 0.00 0.00 20 1031.3
20260902215404 89 220 7.0 15.0 0.00 0.00 0.00 19 1031.3
20260902214904 89 213 7.0 13.0 0.00 0.00 0.00 18 1031.4
20260902214404 89 253 7.0 16.0 0.00 0.00 0.00 18 1031.5
20260902213903 89 194 3.0 7.0 0.00 0.00 0.00 19 1031.6
20260902213403 88 168 6.0 14.0 0.00 0.00 0.00 19 1031.6
20260902212903 88 173 5.0 10.0 0.00 0.00 0.00 19 1031.6
20260902212404 88 266 6.0 12.0 0.00 0.00 0.00 17 1031.7
20260902211904 88 208 6.0 16.0 0.00 0.00 0.00 18 1031.8
20260902211404 88 170 5.0 12.0 0.00 0.00 0.00 18 1031.7
20260902210403 88 175 5.0 13.0 0.00 0.00 0.00 19 1031.9
20260902205903 87 147 6.0 12.0 0.00 0.00 0.00 19 1032.0
20260902205404 87 173 4.0 10.0 0.00 0.00 0.00 18 1032.0
20260902204903 86 240 3.0 10.0 0.00 0.00 0.00 17 1032.1
20260902204404 86 222 9.0 14.0 0.00 0.00 0.00 17 1032.2
20260902203903 86 220 6.0 12.0 0.00 0.00 0.00 17 1032.2
20260902203404 86 257 7.0 16.0 0.00 0.00 0.00 16 1032.3
20260902202903 87 230 7.0 14.0 0.00 0.00 0.00 16 1032.3
20260902202403 87 215 5.0 14.0 0.00 0.00 0.00 16 1032.3
20260902201904 87 209 7.0 16.0 0.00 0.00 0.00 15 1032.3
20260902201403 86 241 3.0 10.0 0.00 0.00 0.00 17 1032.3
20260902200903 86 239 6.0 10.0 0.00 0.00 0.00 17 1032.3
20260902200404 86 193 4.0 12.0 0.00 0.00 0.00 17 1032.4
20260902195903 86 140 2.0 9.0 0.00 0.00 0.00 17 1032.4
20260902195403 86 211 3.0 10.0 0.00 0.00 0.00 17 1032.5
20260902194904 86 212 4.0 13.0 0.00 0.00 0.00 16 1032.6
20260902194403 85 223 6.0 15.0 0.00 0.00 0.00 17 1032.6
20260902193903 85 186 3.0 9.0 0.00 0.00 0.00 18 1032.6
20260902193404 85 210 9.0 17.0 0.00 0.00 0.00 17 1032.7
20260902192904 85 290 8.0 12.0 0.00 0.00 0.00 18 1032.7
20260902192404 85 242 3.0 13.0 0.00 0.00 0.00 18 1032.8
20260902191903 85 221 6.0 12.0 0.00 0.00 0.00 18 1032.7
20260902191404 84 274 2.0 15.0 0.00 0.00 0.00 19 1032.7
20260902190903 84 215 7.0 14.0 0.00 0.00 0.00 19 1032.8
20260902190403 84 277 5.0 10.0 0.00 0.00 0.00 18 1032.9
20260902184903 84 214 5.0 12.0 0.00 0.00 0.00 19 1032.9
20260902184404 84 84 4.0 10.0 0.00 0.00 0.00 20 1033.0
20260902183903 83 252 2.0 13.0 0.00 0.00 0.00 20 1033.0
20260902183403 83 262 4.0 12.0 0.00 0.00 0.00 19 1033.1
20260902182904 83 138 2.0 8.0 0.00 0.00 0.00 20 1033.1
20260902182404 83 154 2.0 7.0 0.00 0.00 0.00 20 1033.1
20260902181903 83 216 6.0 12.0 0.00 0.00 0.00 21 1033.2
20260902181403 82 176 3.0 7.0 0.00 0.00 0.00 23 1033.2
20260902180903 82 206 2.0 6.0 0.00 0.00 0.00 25 1033.3
20260902175403 80 164 2.0 6.0 0.00 0.00 0.00 27 1033.6
20260902174904 79 179 1.0 5.0 0.00 0.00 0.00 27 1033.6
20260902174403 79 129 1.0 3.0 0.00 0.00 0.00 27 1033.6
20260902173903 78 247 2.0 3.0 0.00 0.00 0.00 26 1033.6
20260902173404 78 232 2.0 3.0 0.00 0.00 0.00 26 1033.6
20260902172903 78 188 2.0 7.0 0.00 0.00 0.00 27 1033.6
20260902172404 78 236 3.0 6.0 0.00 0.00 0.00 26 1033.6
20260902171904 77 262 0.0 3.0 0.00 0.00 0.00 26 1033.7
20260902170903 76 318 0.0 3.0 0.00 0.00 0.00 26 1033.7
20260902170404 76 109 1.0 2.0 0.00 0.00 0.00 27 1033.7
20260902165904 75 200 2.0 3.0 0.00 0.00 0.00 27 1033.7
20260902165403 75 224 2.0 3.0 0.00 0.00 0.00 28 1033.7
20260902164404 75 215 2.0 3.0 0.00 0.00 0.00 28 1033.8
20260902163904 74 200 0.0 3.0 0.00 0.00 0.00 30 1033.8
20260902163403 74 5 0.0 1.0 0.00 0.00 0.00 31 1033.7
20260902162903 73 5 0.0 0.0 0.00 0.00 0.00 31 1033.7
20260902161403 72 108 0.0 0.0 0.00 0.00 0.00 34 1033.8
20260902160404 70 138 0.0 0.0 0.00 0.00 0.00 35 1033.8
20260902155903 70 101 0.0 0.0 0.00 0.00 0.00 35 1033.7
20260902155403 69 101 1.0 3.0 0.00 0.00 0.00 35 1033.8
20260902154403 68 117 0.0 2.0 0.00 0.00 0.00 36 1033.7
20260902153903 68 117 1.0 3.0 0.00 0.00 0.00 35 1033.8
20260902153403 67 105 1.0 3.0 0.00 0.00 0.00 36 1033.8
20260902152403 66 129 1.0 3.0 0.00 0.00 0.00 36 1034.0
20260902151903 66 81 2.0 3.0 0.00 0.00 0.00 36 1033.9
20260902151403 65 111 0.0 1.0 0.00 0.00 0.00 36 1033.9
20260902150904 65 92 0.0 0.0 0.00 0.00 0.00 37 1034.0
20260902150403 64 118 0.0 0.0 0.00 0.00 0.00 36 1033.9
20260902145903 64 100 0.0 0.0 0.00 0.00 0.00 37 1033.9
20260902145403 63 144 0.0 0.0 0.00 0.00 0.00 39 1033.9
20260902144903 63 144 0.0 0.0 0.00 0.00 0.00 39 1034.0
20260902144403 62 144 0.0 0.0 0.00 0.00 0.00 40 1033.9
20260902143903 62 144 0.0 1.0 0.00 0.00 0.00 41 1033.8
20260902143403 61 144 0.0 1.0 0.00 0.00 0.00 41 1033.8
20260902142403 60 153 1.0 3.0 0.00 0.00 0.00 41 1033.5
20260902141903 59 117 0.0 0.0 0.00 0.00 0.00 42 1033.4
20260902141403 59 117 0.0 0.0 0.00 0.00 0.00 42 1033.5
20260902140903 58 139 0.0 0.0 0.00 0.00 0.00 44 1033.3
20260902140403 57 250 0.0 0.0 0.00 0.00 0.00 45 1033.3
20260902135903 57 250 0.0 0.0 0.00 0.00 0.00 46 1033.3
20260902135403 57 250 0.0 0.0 0.00 0.00 0.00 45 1033.2
20260902134404 57 250 0.0 0.0 0.00 0.00 0.00 44 1033.1
20260902133903 57 250 0.0 0.0 0.00 0.00 0.00 44 1033.0
20260902133404 57 250 0.0 0.0 0.00 0.00 0.00 43 1033.0
20260902132903 57 250 0.0 0.0 0.00 0.00 0.00 43 1032.9
20260902132403 57 250 0.0 0.0 0.00 0.00 0.00 43 1032.9
20260902131903 57 250 0.0 0.0 0.00 0.00 0.00 43 1033.0
20260902131403 58 250 0.0 0.0 0.00 0.00 0.00 42 1032.9
20260902130903 58 140 0.0 0.0 0.00 0.00 0.00 42 1033.0
20260902130404 58 140 0.0 0.0 0.00 0.00 0.00 42 1033.0
20260902125904 58 140 0.0 0.0 0.00 0.00 0.00 42 1033.0
20260902124903 58 140 0.0 0.0 0.00 0.00 0.00 42 1033.0
20260902124404 58 140 0.0 0.0 0.00 0.00 0.00 42 1033.1
20260902123903 58 140 0.0 0.0 0.00 0.00 0.00 41 1033.1
20260902123403 58 140 0.0 0.0 0.00 0.00 0.00 41 1033.1
20260902122903 59 140 0.0 0.0 0.00 0.00 0.00 41 1033.0
20260902122403 59 140 0.0 0.0 0.00 0.00 0.00 40 1033.1
20260902121903 59 140 0.0 0.0 0.00 0.00 0.00 40 1033.1
20260902121403 59 140 0.0 0.0 0.00 0.00 0.00 41 1033.1
20260902120903 59 140 0.0 0.0 0.00 0.00 0.00 41 1033.1
20260902120403 59 140 0.0 0.0 0.00 0.00 0.00 41 1033.1
20260902115903 60 140 0.0 0.0 0.00 0.00 0.00 41 1033.2
20260902115404 60 140 0.0 0.0 0.00 0.00 0.00 41 1033.3
20260902114904 60 140 0.0 0.0 0.00 0.00 0.00 41 1033.2
20260902114403 60 140 0.0 0.0 0.00 0.00 0.00 41 1033.2
20260902113903 60 140 0.0 0.0 0.00 0.00 0.00 41 1033.1
20260902113403 60 140 0.0 0.0 0.00 0.00 0.00 41 1033.1
20260902112903 60 140 0.0 0.0 0.00 0.00 0.00 41 1033.2
20260902112404 60 140 0.0 0.0 0.00 0.00 0.00 41 1033.2
20260902111403 61 140 0.0 0.0 0.00 0.00 0.00 39 1033.2
20260902110903 61 140 0.0 0.0 0.00 0.00 0.00 40 1033.1
20260902105904 61 140 0.0 0.0 0.00 0.00 0.00 39 1033.1
20260902105403 61 140 0.0 0.0 0.00 0.00 0.00 38 1033.1